Location: Casone le Fosse
(44.6547°N, 12.1103°E)
Time: 12:13:20
(UTC+00:00)

Cosmos 2263 Rocket - Pass Details

Date: 29 October 2020
Orbit: 822 x 850 km, 71.0° (Epoch: 27 November)

Event Time Altitude Azimuth Distance (km) Brightness Sun altitude
Rises 16:54:47 0° 344° (NNW) 3,420 5.4 -9.5°
Reaches altitude 10° 16:58:29 10° 8° (N) 2,484 4.5 -10.2°
Maximum altitude 17:01:34 15° 41° (NE) 2,171 3.9 -10.7°
Enters shadow 17:03:27 13° 62° (ENE) 2,292 3.9 -11.1°
